Flag for Jordan Weather past 2 weeks in Amman, Jordan

Now
75 °F

Clear.


Feels Like: 78 °F
Forecast: 70 / 88 °F
Wind: 6 mph from West

Location: Amman Airport

Current Time: Sep 5, 2015 at 12:51:30 AM

Latest Report: Sep 5, 2015 at 12:00 AM


Visibility: 4 mi

Pressure: 29.95 "Hg (27.27 "Hg at 816m altitude)

Humidity: 57%

Dew point: 59 °F

Location of AmmanLocation

Historic Weather in Amman — Graph

°F

Amman temperature yesterday

Maximum temperature yesterday: 93 °F (at 3:00 PM)
Minimum temperature yesterday: 66 °F (at 6:00 AM)
Average temperature yesterday: 80 °F

Past Weeks' High & Low Weather Summary

 TemperatureHumidityPressure
High93 °F (Aug 21, 3:00 PM)88% (Aug 22, 7:00 AM)30.01 "Hg (Aug 22, 7:00 AM)
Low66 °F (Sep 4, 6:00 AM)13% (Sep 2, 4:00 PM)29.83 "Hg (Aug 22, 4:00 PM)
Average79 °F49%29.92 "Hg
* Reported Aug 20 10:00 PM — Sep 4 10:00 PM, Amman, Weather by CustomWeather, © 2015

Note: Actual official high and low records may vary slightly from our data, if they occured in-between our weather recording intervals... More about our weather records

Advertising

Amman weather history for previous 24 hours

 ConditionsComfort  
Time TempWeatherWind HumidityBarometerVisibility
10:00 PM
Fri, Sep 4
77 °FClear.3 mph51%29.95 "Hg4 mi
9:00 PM77 °FClear.3 mph51%29.95 "Hg4 mi
8:00 PM79 °FClear.12 mph51%29.92 "Hg4 mi
7:00 PM82 °FClear.9 mph40%29.92 "Hg4 mi
6:00 PM90 °FClear.9 mph33%29.92 "Hg4 mi
5:00 PM90 °FClear.8 mph33%29.92 "Hg4 mi
4:00 PM91 °FClear.8 mph30%29.92 "Hg4 mi
3:00 PM93 °FClear.5 mph28%29.92 "Hg4 mi
2:00 PM91 °FClear.5 mph28%29.95 "Hg4 mi
1:00 PM90 °FClear.5 mph27%29.95 "Hg4 mi
12:00 PM88 °FHaze.5 mph29%29.95 "Hg3 mi
11:00 AM88 °FHaze.5 mph29%29.95 "Hg3 mi
10:00 AM79 °FHaze.No wind42%29.98 "Hg3 mi
9:00 AM75 °FHaze.No wind65%29.95 "Hg3 mi
8:00 AM70 °FHaze.No wind60%29.92 "Hg3 mi
7:00 AM66 °FHaze.No wind73%29.92 "Hg3 mi
6:00 AM66 °FHaze.No wind73%29.92 "Hg3 mi
5:00 AM70 °FHaze.No wind78%29.92 "Hg3 mi
4:00 AM72 °FHaze.No wind73%29.92 "Hg3 mi
3:00 AM72 °FHaze.No wind69%29.92 "Hg3 mi
2:00 AM73 °FHaze.No wind65%29.92 "Hg3 mi
1:00 AM77 °FHaze.6 mph61%29.92 "Hg3 mi
12:00 AM79 °FHaze.6 mph58%29.92 "Hg3 mi
Weather by CustomWeather, © 2015

See weather overviewHow to use our weather pages